TimeEST,TemperatureF,Dew PointF,Humidity,Sea Level PressureIn,VisibilityMPH,Wind Direction,Wind SpeedMPH,Gust SpeedMPH,PrecipitationIn,Events,Conditions,WindDirDegrees,DateUTC
12:25 AM,55.4,53.6,94,29.94,10.0,South,15.0,21.9,N/A,,Overcast,180,2012-12-05 05:25:00
12:55 AM,55.4,53.6,94,29.92,10.0,South,16.1,-,N/A,,Overcast,190,2012-12-05 05:55:00
1:30 AM,55.4,53.6,94,29.91,10.0,South,11.5,-,N/A,,Overcast,180,2012-12-05 06:30:00
1:55 AM,55.0,53.1,93,29.91,10.0,South,12.7,-,N/A,,Overcast,190,2012-12-05 06:55:00
2:09 AM,55.4,53.6,94,29.89,10.0,South,12.7,-,N/A,Rain,Light Rain,190,2012-12-05 07:09:00
2:16 AM,55.4,53.6,94,29.88,10.0,South,12.7,-,N/A,Rain,Light Rain,170,2012-12-05 07:16:00
2:22 AM,55.4,53.6,94,29.88,10.0,South,12.7,-,N/A,Rain,Light Rain,180,2012-12-05 07:22:00
2:23 AM,53.6,53.6,100,29.88,10.0,South,12.7,-,N/A,Rain,Light Rain,170,2012-12-05 07:23:00
2:33 AM,53.6,53.6,100,29.88,10.0,South,11.5,-,N/A,,Overcast,180,2012-12-05 07:33:00
2:36 AM,53.6,53.6,100,29.88,10.0,South,11.5,-,N/A,,Overcast,180,2012-12-05 07:36:00
2:46 AM,53.6,53.6,100,29.87,10.0,South,11.5,-,N/A,Rain,Light Rain,190,2012-12-05 07:46:00
2:49 AM,53.6,53.6,100,29.86,10.0,South,11.5,-,N/A,Rain,Light Rain,170,2012-12-05 07:49:00
2:55 AM,54.1,53.1,96,29.86,10.0,South,11.5,-,0.01,Rain,Light Rain,180,2012-12-05 07:55:00
3:14 AM,53.6,53.6,100,29.87,10.0,SSW,10.4,-,N/A,,Overcast,200,2012-12-05 08:14:00
3:37 AM,53.6,53.6,100,29.87,10.0,SSW,10.4,-,N/A,Rain,Light Rain,210,2012-12-05 08:37:00
3:39 AM,53.6,53.6,100,29.87,9.0,SSW,11.5,-,N/A,Rain,Light Rain,210,2012-12-05 08:39:00
3:55 AM,53.1,52.5,98,29.89,7.0,West,13.8,-,0.00,Rain,Light Rain,260,2012-12-05 08:55:00
4:01 AM,53.6,51.8,94,29.90,10.0,West,18.4,21.9,N/A,,Overcast,280,2012-12-05 09:01:00
4:03 AM,53.6,51.8,94,29.90,10.0,WNW,16.1,21.9,N/A,,Overcast,290,2012-12-05 09:03:00
4:55 AM,51.4,47.1,85,29.90,10.0,West,8.1,-,0.00,,Overcast,270,2012-12-05 09:55:00
5:13 AM,51.8,46.4,82,29.91,10.0,West,9.2,-,N/A,Rain,Light Rain,280,2012-12-05 10:13:00
5:55 AM,50.2,46.0,86,29.91,10.0,WNW,6.9,-,0.01,Rain,Light Rain,290,2012-12-05 10:55:00
6:03 AM,50.0,46.4,87,29.91,10.0,WNW,6.9,-,N/A,,Mostly Cloudy,290,2012-12-05 11:03:00
6:19 AM,50.0,46.4,87,29.92,10.0,WNW,8.1,-,N/A,,Light Drizzle,290,2012-12-05 11:19:00
6:28 AM,50.0,46.4,87,29.93,10.0,WNW,9.2,-,N/A,,Overcast,290,2012-12-05 11:28:00
6:55 AM,50.2,41.9,73,29.93,10.0,NW,18.4,25.3,0.00,,Overcast,310,2012-12-05 11:55:00
7:55 AM,48.7,40.3,73,29.96,10.0,WNW,13.8,23.0,N/A,,Partly Cloudy,290,2012-12-05 12:55:00
9:55 AM,50.7,35.8,57,29.97,10.0,WNW,15.0,-,N/A,,Clear,290,2012-12-05 14:55:00
10:55 AM,52.0,35.4,53,29.97,10.0,NW,17.3,24.2,N/A,,Overcast,320,2012-12-05 15:55:00
11:55 AM,50.4,33.8,53,29.96,10.0,WNW,19.6,-,N/A,,Overcast,300,2012-12-05 16:55:00
12:55 PM,50.5,34.2,53,29.96,10.0,NW,11.5,23.0,N/A,,Overcast,320,2012-12-05 17:55:00
1:55 PM,46.4,29.8,53,29.99,10.0,NW,18.4,32.2,N/A,,Mostly Cloudy,310,2012-12-05 18:55:00
2:55 PM,43.3,27.1,53,30.00,10.0,NW,25.3,36.8,N/A,,Partly Cloudy,310,2012-12-05 19:55:00
3:55 PM,41.0,23.5,50,30.05,10.0,WNW,21.9,35.7,N/A,,Overcast,300,2012-12-05 20:55:00
4:55 PM,39.2,22.5,51,30.07,10.0,WNW,21.9,32.2,N/A,,Scattered Clouds,300,2012-12-05 21:55:00
5:55 PM,37.2,21.9,54,30.08,10.0,WNW,16.1,-,N/A,,Scattered Clouds,290,2012-12-05 22:55:00
6:55 PM,37.9,22.1,53,30.09,10.0,NW,12.7,-,N/A,,Overcast,320,2012-12-05 23:55:00
7:55 PM,36.9,17.2,45,30.12,10.0,NW,13.8,23.0,N/A,,Overcast,320,2012-12-06 00:55:00
8:55 PM,36.7,18.3,47,30.13,10.0,NW,15.0,21.9,N/A,,Overcast,320,2012-12-06 01:55:00
9:55 PM,34.9,17.6,49,30.15,10.0,NNW,20.7,33.4,N/A,,Scattered Clouds,330,2012-12-06 02:55:00
10:55 PM,32.9,14.5,47,30.18,10.0,NNW,17.3,27.6,N/A,,Mostly Cloudy,330,2012-12-06 03:55:00
11:55 PM,30.9,13.3,48,30.19,10.0,NW,12.7,18.4,N/A,,Clear,310,2012-12-06 04:55:00